THOR ABLESTAR DEB, 329

Orbit data source: Space-Track

THOR ABLESTAR DEB, 329 is space debris in LEO originally from a launch on Thu, 29 Jun 1961 UTC launched from the Air Force Eastern Test Range (AFETR). Debris objects in space refer to the collection of defunct objects orbiting the Earth. Examples of debris include non-operational satellites, rocket bodies, and fragments generated from explosions, collisions, or faulty payload assembly.

Loading next visibility...
Identifier
329, 1961-015DF
Orbit
LEO
Country
Flag of USUS
Related business
Manufacturer
Unknown
Mission
Spacecraft
Bus & Motor
Unknown
Mass
Unknown
Launch date (UTC)
1961-06-29 (65 years ago)
Launch vehicle
Unknown
Launch site
Air Force Eastern Test Range (AFETR)
Object type
Payload
Rocket body
Debris
Shape & HBR
Unknown shape, 0.1 m
Radar Cross Section
Small (<0.1 m²)

Expand to show TLE details & history
Last TLE update: 10 hours ago

TLE from 10 hours ago
0 THOR ABLESTAR DEB
1   329U 61015DF  26131.21095602  .00000072  00000-0  16701-3 0  9992
2   329  66.7788 101.1303 0113015  16.2243   4.6385 13.66115806224962
Epoch: 2026-05-11T05:03Z
TLE epoch observation values (Epoch: 2026-05-11T05:03:46.600Z)
Latitude
19.21467°
Longitude
164.73749°
Altitude
931.865 km
Speed
7.429 km/s
True Right ascension
07h 18m 44s
True Declination
19° 06' 38"
Sunlit
Object was in daylight at epoch
Visualization orbit readout
Latitude
Unknown
Longitude
Unknown
Altitude
Unknown
Speed
Unknown
Apparent Right ascension
Unknown
Apparent Declination
Unknown
Sunlit
N/A
Visualization observer readout
Local Sidereal Time
23:42:18
Azimuth
Unknown
Elevation
Unknown
Doppler factor
Unknown
Orbital elements
Apogee altitude
1,095.483 km
Perigee altitude
928.444 km
Semi-major axis
7,390.101 km
Eccentricity
0.0113
Inclination
66.7788°
RAAN
101.1303°
Arg. of periapsis
16.2243°
True anomaly
4.74472°
Mean anomaly
4.6385°
Eccentric anomaly
4.69146°
Mean motion
3.41639 °/min
Orbital period
105.37 mins
BSTAR
0.00016701
Loading maneuver chart data...
Computing Atmospheric mass density...

Documentation

Showing up to 5 results
|